Perry, IA

1:30 PM CST on January 21, 2018 (GMT -0600)
Perry Municipal

Weather History for KPRO - September, 2013

Change the Weather History Date:

Tuesday, September 17, 2013

  Actual Average Record
Temperature  
Mean Temperature 60 °F -  
Max Temperature 66 °F 72 °F 94 °F (1955)
Min Temperature 54 °F 48 °F 33 °F (1980)
Degree Days  
Heating Degree Days 5    
Growing Degree Days 10 (Base 50)    
Moisture  
Dew Point 56 °F    
Average Humidity 88    
Maximum Humidity 92    
Minimum Humidity 76    
Precipitation  
Precipitation 0.63 in - - ()
Sea Level Pressure  
Sea Level Pressure 30.11 in    
Wind  
Wind Speed 7 mph (SE)    
Max Wind Speed 12 mph    
Max Gust Speed 17 mph    
Visibility 6 miles    
Events Rain    
Averages and records for this station are not official NWS values.
T = Trace of Precipitation, MM = Missing Value Source: NWS Daily Summary

Daily Weather History Graph

Daily Weather History Graph

Search for Another Location

Airport or City:

Trip Planner

Search our weather history database for the weather conditions in past years. The results will help you decide how hot, cold, wet, or windy it might be!

Date:

Astronomy

Sep. 17, 2013 Rise Set
Actual Time 6:59 AM CDT 7:22 PM CDT
Civil Twilight 6:31 AM CDT 7:49 PM CDT
Nautical Twilight 5:58 AM CDT 8:22 PM CDT
Astronomical Twilight 5:24 AM CDT 8:56 PM CDT
Moon 6:10 PM CDT (9/17) 4:53 AM CDT (9/17)
Length of Visible Light 13h 18m
Length of Day
12h 22m
Waxing Gibbous, 96% of the Moon is Illuminated
Sep 17
Waxing Gibbous
Sep 19
Full
Sep 26
Last Quarter
Oct 4
New
Oct 11
First Quarter

Hourly Weather History & Observations

Time (CDT) Temp. Dew Point Humidity Pressure Visibility Wind Dir Wind Speed Gust Speed Precip Events Conditions
12:15 AM 54.7 °F 49.6 °F 83% 30.26 in 10.0 mi ESE 5.8 mph - N/A   Clear
12:35 AM 54.5 °F 49.6 °F 84% 30.25 in 10.0 mi ESE 4.6 mph - N/A   Clear
12:55 AM 54.5 °F 50.0 °F 85% 30.25 in 10.0 mi ESE 4.6 mph - N/A   Clear
1:15 AM 55.0 °F 50.0 °F 83% 30.24 in 10.0 mi ESE 4.6 mph - N/A   Scattered Clouds
1:35 AM 55.9 °F 50.2 °F 81% 30.24 in 10.0 mi ESE 5.8 mph - N/A   Overcast
1:55 AM 56.3 °F 50.2 °F 80% 30.24 in 10.0 mi ESE 5.8 mph - N/A   Overcast
2:15 AM 56.5 °F 50.2 °F 79% 30.24 in 10.0 mi ESE 5.8 mph - N/A   Overcast
2:35 AM 57.2 °F 50.2 °F 77% 30.23 in 10.0 mi SE 5.8 mph - N/A   Overcast
2:55 AM 57.4 °F 50.0 °F 76% 30.22 in 10.0 mi ESE 5.8 mph - N/A   Overcast
3:15 AM 56.8 °F 50.7 °F 80% 30.22 in 10.0 mi ESE 4.6 mph - N/A   Light Drizzle
3:35 AM 56.3 °F 51.6 °F 84% 30.21 in 10.0 mi East 4.6 mph - N/A Rain Light Rain
3:55 AM 55.9 °F 52.0 °F 87% 30.21 in 4.0 mi SE 3.5 mph - 0.04 in Rain Heavy Rain
4:15 AM 55.6 °F 52.0 °F 88% 30.21 in 3.0 mi Calm Calm - 0.07 in Rain Heavy Rain
4:35 AM 55.4 °F 52.2 °F 89% 30.21 in 5.0 mi SSE 3.5 mph - 0.13 in Rain Light Rain
4:55 AM 55.4 °F 52.5 °F 90% 30.20 in 5.0 mi SE 4.6 mph - 0.15 in Rain Rain
5:15 AM 55.6 °F 52.7 °F 90% 30.21 in 5.0 mi SE 3.5 mph - 0.03 in Rain Heavy Rain
5:35 AM 55.4 °F 52.7 °F 91% 30.20 in 3.0 mi SSE 4.6 mph - 0.12 in Rain Rain
5:55 AM 55.4 °F 52.7 °F 91% 30.20 in 4.0 mi SE 5.8 mph - 0.18 in Rain Rain
6:15 AM 55.4 °F 52.7 °F 91% 30.19 in 4.0 mi SE 6.9 mph - 0.05 in Rain Rain
6:35 AM 55.6 °F 52.9 °F 91% 30.19 in 5.0 mi SE 10.4 mph - 0.10 in Rain Rain
6:55 AM 55.6 °F 52.9 °F 91% 30.19 in 5.0 mi SE 8.1 mph - 0.14 in Rain Rain
7:15 AM 55.6 °F 52.9 °F 91% 30.19 in 5.0 mi SE 9.2 mph - 0.03 in Rain Light Rain
7:35 AM 55.6 °F 53.1 °F 91% 30.18 in 5.0 mi SE 8.1 mph - 0.04 in Rain Light Rain
7:55 AM 55.8 °F 53.2 °F 91% 30.18 in 4.0 mi SE 9.2 mph - 0.05 in Rain Rain
8:15 AM 55.8 °F 53.2 °F 91% 30.18 in 2.0 mi SE 8.1 mph - 0.03 in   Heavy Drizzle
8:35 AM 55.9 °F 53.6 °F 92% 30.18 in 3.0 mi SE 8.1 mph - 0.04 in Rain Light Rain
8:55 AM 56.1 °F 53.6 °F 91% 30.17 in 2.5 mi ESE 8.1 mph - 0.06 in Rain Light Rain
9:15 AM 56.3 °F 53.6 °F 91% 30.16 in 3.0 mi SE 9.2 mph - 0.01 in Rain Light Rain
9:35 AM 56.3 °F 53.8 °F 91% 30.17 in 3.0 mi SE 9.2 mph - 0.01 in   Overcast
9:55 AM 56.5 °F 53.8 °F 91% 30.16 in 10.0 mi SE 10.4 mph - 0.01 in   Overcast
10:15 AM 56.5 °F 53.8 °F 91% 30.16 in 7.0 mi SE 11.5 mph - N/A   Overcast
10:35 AM 56.7 °F 53.8 °F 90% 30.15 in 7.0 mi SE 11.5 mph 16.1 mph N/A   Overcast
10:55 AM 57.0 °F 54.0 °F 89% 30.15 in 7.0 mi SE 10.4 mph 17.3 mph N/A   Overcast
11:15 AM 57.2 °F 54.5 °F 91% 30.14 in 5.0 mi SE 11.5 mph - N/A   Overcast
11:35 AM 57.4 °F 54.5 °F 90% 30.14 in 4.0 mi SSE 10.4 mph - N/A   Overcast
11:55 AM 57.9 °F 55.0 °F 90% 30.13 in 4.0 mi SSE 10.4 mph - N/A   Overcast
12:15 PM 58.1 °F 55.0 °F 90% 30.13 in 4.0 mi SSE 10.4 mph 16.1 mph N/A   Overcast
12:35 PM 58.5 °F 55.4 °F 90% 30.11 in 4.0 mi SSE 9.2 mph - N/A   Overcast
12:55 PM 59.0 °F 55.9 °F 90% 30.11 in 4.0 mi SSE 9.2 mph - N/A   Overcast
1:15 PM 59.4 °F 56.3 °F 90% 30.10 in 4.0 mi SE 8.1 mph - N/A   Overcast
1:35 PM 60.1 °F 56.8 °F 89% 30.09 in 4.0 mi SE 9.2 mph - N/A   Overcast
1:55 PM 60.8 °F 57.4 °F 88% 30.08 in 4.0 mi SSE 9.2 mph - N/A   Overcast
2:15 PM 60.8 °F 57.6 °F 89% 30.06 in 3.0 mi SE 9.2 mph - N/A   Overcast
2:35 PM 61.9 °F 58.1 °F 87% 30.06 in 5.0 mi SE 8.1 mph - N/A   Overcast
2:55 PM 62.1 °F 58.3 °F 87% 30.05 in 5.0 mi SE 10.4 mph - N/A   Overcast
3:15 PM 62.1 °F 58.3 °F 87% 30.04 in 4.0 mi SE 10.4 mph - N/A   Overcast
3:35 PM 62.8 °F 58.6 °F 86% 30.04 in 5.0 mi SSE 9.2 mph - N/A   Overcast
3:55 PM 63.0 °F 59.0 °F 87% 30.03 in 5.0 mi SE 9.2 mph - N/A   Overcast
4:15 PM 63.5 °F 59.2 °F 86% 30.02 in 5.0 mi SE 10.4 mph - N/A   Overcast
4:35 PM 63.5 °F 59.4 °F 86% 30.02 in 5.0 mi SE 10.4 mph - N/A   Haze
4:55 PM 63.9 °F 59.9 °F 87% 30.01 in 7.0 mi SSE 10.4 mph - N/A   Overcast
5:15 PM 64.4 °F 59.9 °F 85% 30.01 in 7.0 mi SE 10.4 mph - N/A   Overcast
5:35 PM 64.0 °F 59.9 °F 86% 30.00 in 7.0 mi SE 11.5 mph - N/A   Overcast
5:55 PM 63.9 °F 60.1 °F 87% 29.99 in 5.0 mi SE 11.5 mph - N/A   Overcast
6:15 PM 63.9 °F 60.1 °F 87% 29.99 in 5.0 mi SE 9.2 mph - N/A   Overcast
6:35 PM 64.0 °F 60.3 °F 87% 30.00 in 5.0 mi SSE 9.2 mph - N/A   Overcast
6:55 PM 64.0 °F 60.3 °F 87% 29.99 in 5.0 mi SSE 5.8 mph - N/A   Overcast
7:15 PM 64.0 °F 60.4 °F 88% 29.98 in 5.0 mi SE 8.1 mph - N/A   Overcast
7:35 PM 63.9 °F 60.6 °F 89% 29.97 in 5.0 mi SE 6.9 mph - N/A   Overcast
7:55 PM 63.9 °F 60.6 °F 89% 29.97 in 4.0 mi SE 6.9 mph - N/A   Overcast
8:15 PM 64.0 °F 60.8 °F 89% 29.97 in 4.0 mi SE 8.1 mph - N/A   Overcast
8:35 PM 64.0 °F 61.0 °F 90% 29.97 in 2.5 mi SE 11.5 mph - N/A   Overcast
8:55 PM 64.0 °F 61.2 °F 90% 29.97 in 2.5 mi SE 10.4 mph 16.1 mph N/A   Overcast
9:15 PM 64.4 °F 61.3 °F 90% 29.98 in 3.0 mi SE 9.2 mph - N/A   Overcast
9:35 PM 64.4 °F 61.7 °F 91% 29.98 in 3.0 mi SSE 10.4 mph - N/A   Overcast
9:55 PM 64.9 °F 61.9 °F 90% 29.98 in 4.0 mi SSE 9.2 mph 16.1 mph N/A   Overcast
10:15 PM 65.3 °F 61.9 °F 89% 29.98 in 5.0 mi SSE 9.2 mph - N/A   Overcast
10:35 PM 65.7 °F 61.9 °F 88% 29.99 in 5.0 mi SSE 6.9 mph - N/A   Overcast
10:55 PM 65.8 °F 61.9 °F 87% 29.99 in 7.0 mi SSE 8.1 mph - N/A   Overcast
11:15 PM 66.0 °F 62.1 °F 87% 29.99 in 7.0 mi SSE 6.9 mph - N/A   Overcast
11:35 PM 66.2 °F 62.1 °F 86% 29.98 in 7.0 mi SSE 8.1 mph - N/A   Overcast
11:55 PM 66.2 °F 62.1 °F 86% 29.98 in 7.0 mi SSE 8.1 mph - N/A   Overcast